Flag for Australia Weather past 2 weeks in Geelong, Victoria, Australia

Now
66 °F

Mild.


Feels Like: 66 °F
Forecast: 53 / 73 °F
Wind: 14 mph from Southwest

Location: Geelong Airport Aws

Current Time: Feb 2, 2015 at 1:24:21 PM

Latest Report: Feb 2, 2015 at 12:00 PM


Visibility: N/A

Pressure: 30.15 "Hg

Humidity: 66%

Dew point: 54 °F

Location of GeelongLocation

Historic Weather in Geelong — Graph

°F

Geelong temperature yesterday

Maximum temperature yesterday: 63 °F (at 4:00 PM)
Minimum temperature yesterday: 55 °F (at 7:00 AM)
Average temperature yesterday: 59 °F

Past Weeks' High & Low Weather Summary

 TemperatureHumidityPressure
High92 °F (Jan 22, 4:00 PM)94% (Jan 22, 4:00 AM)30.16 "Hg (Jan 22, 4:00 AM)
Low48 °F (Jan 26, 6:00 AM)36% (Jan 20, 6:00 PM)29.59 "Hg (Jan 24, 6:00 PM)
Average63 °F67%29.91 "Hg
* Reported Jan 18 12:00 Noon — Feb 2 12:00 Noon, Geelong, Weather by CustomWeather, © 2014

Note: Actual official high and low records may vary slightly from our data, if they occured in-between our weather recording intervals... More about our weather records

Advertising

Geelong weather history for previous 24 hours

 ConditionsComfort  
Time TempWeatherWind HumidityBarometerVisibility
12:00 PM
Feb 2
66 °FMild.14 mph66%30.15 "HgN/A
10:00 AM64 °FMild.14 mph59%30.13 "HgN/A
9:00 AM63 °FMild.10 mph63%30.12 "HgN/A
7:00 AM59 °FCool.7 mph71%30.08 "HgN/A
6:00 AM59 °FCool.7 mph71%30.06 "HgN/A
4:00 AM59 °FCool.7 mph70%30.04 "HgN/A
3:00 AM59 °FCool.10 mph69%30.05 "HgN/A
1:00 AM59 °FCool.12 mph72%30.06 "HgN/A
12:00 AM60 °FCool.14 mph70%30.06 "HgN/A
10:00 PM
Feb 1
59 °FCool.12 mph78%30.03 "HgN/A
9:00 PM60 °FCool.15 mph77%30.01 "HgN/A
7:00 PM62 °FCool.18 mph74%29.98 "HgN/A
6:00 PM63 °FMild.21 mph76%29.96 "HgN/A
4:00 PM63 °FMild.20 mph86%29.95 "HgN/A
3:00 PM61 °FCool.16 mph93%29.96 "HgN/A
1:00 PM60 °FCool.16 mph93%29.96 "HgN/A
Weather by CustomWeather, © 2014

See weather overviewHow to use our weather pages